Location: Gleizolles
(44.4833°N, 6.7667°E)
Time: 12:23:43
(UTC+00:00)

BlueWalker 3 - Visible Passes

Search period start: 23 May 2024 00:00
Search period end: 02 June 2024 00:00
Orbit: 482 x 494 km, 53.2° (Epoch: 22 May)

Date Brightness Start Highest point End Pass type
(mag) Time Alt. Az. Time Alt. Az. Time Alt. Az.
30 May 4.1 03:04:43 10° S 03:07:14 17° SE 03:09:45 10° E visible
31 May 4.1 02:39:27 10° S 02:41:48 16° SE 02:44:11 10° E visible
01 Jun 4.1 02:14:13 10° SSE 02:16:22 15° SE 02:18:35 10° E visible
